Time,TemperatureF,DewpointF,PressureIn,WindDirection,WindDirectionDegrees,WindSpeedMPH,WindSpeedGustMPH,Humidity,HourlyPrecipIn,Conditions,Clouds,dailyrainin,SolarRadiationWatts/m^2,SoftwareType,DateUTC
2013-01-09 00:22:00,32.0,32.0,-100.00,NNW,334,5.0,9.0,100,0.00,,,0.01,0.000000,,2013-01-09 09:22:00,
2013-01-09 00:32:00,32.0,32.0,-100.00,NNW,334,5.0,9.0,100,0.00,,,0.01,0.000000,,2013-01-09 09:32:00,
2013-01-09 00:42:00,32.0,32.0,-100.00,NNW,334,5.0,9.0,100,0.00,,,0.01,0.000000,,2013-01-09 09:42:00,
2013-01-09 00:53:00,32.0,32.0,-100.00,NNW,334,5.0,9.0,100,0.00,,,0.01,0.000000,,2013-01-09 09:53:00,
2013-01-09 01:22:00,32.0,32.0,-100.00,NNW,332,6.0,11.0,99,0.00,,,-99.99,0.000000,,2013-01-09 10:22:00,
2013-01-09 01:32:00,32.0,32.0,-100.00,NNW,332,6.0,11.0,99,0.00,,,-99.99,0.000000,,2013-01-09 10:32:00,
2013-01-09 01:42:00,32.0,32.0,-100.00,NNW,332,6.0,11.0,99,0.00,,,-99.99,0.000000,,2013-01-09 10:42:00,
2013-01-09 01:52:00,32.0,32.0,-100.00,NNW,332,6.0,11.0,99,0.00,,,-99.99,0.000000,,2013-01-09 10:52:00,
2013-01-09 02:22:00,32.0,31.0,-100.00,NNW,340,8.0,15.0,95,0.00,,,0.01,0.000000,,2013-01-09 11:22:00,
2013-01-09 02:32:00,32.0,31.0,-100.00,NNW,340,8.0,15.0,95,0.00,,,0.01,0.000000,,2013-01-09 11:32:00,
2013-01-09 02:42:00,32.0,31.0,-100.00,NNW,340,8.0,15.0,95,0.00,,,0.01,0.000000,,2013-01-09 11:42:00,
2013-01-09 02:52:00,32.0,31.0,-100.00,NNW,340,8.0,15.0,95,0.00,,,0.01,0.000000,,2013-01-09 11:52:00,
2013-01-09 03:22:00,31.0,29.0,-100.00,NNW,341,10.0,16.0,94,0.00,,,0.01,0.000000,,2013-01-09 12:22:00,
2013-01-09 03:33:00,31.0,29.0,-100.00,NNW,341,10.0,16.0,94,0.00,,,0.01,0.000000,,2013-01-09 12:33:00,
2013-01-09 03:42:00,31.0,29.0,-100.00,NNW,341,10.0,16.0,94,0.00,,,0.01,0.000000,,2013-01-09 12:42:00,
2013-01-09 03:52:00,31.0,29.0,-100.00,NNW,341,10.0,16.0,94,0.00,,,0.01,0.000000,,2013-01-09 12:52:00,
2013-01-09 04:22:00,31.0,29.0,-100.00,NNW,337,10.0,18.0,91,0.00,,,0.00,0.000000,,2013-01-09 13:22:00,
2013-01-09 04:32:00,31.0,29.0,-100.00,NNW,337,10.0,18.0,91,0.00,,,0.00,0.000000,,2013-01-09 13:32:00,
2013-01-09 04:42:00,31.0,29.0,-100.00,NNW,337,10.0,18.0,91,0.00,,,0.00,0.000000,,2013-01-09 13:42:00,
2013-01-09 04:52:00,31.0,29.0,-100.00,NNW,337,10.0,18.0,91,0.00,,,0.00,0.000000,,2013-01-09 13:52:00,
2013-01-09 05:22:00,31.0,29.0,-100.00,NNW,339,7.0,17.0,91,0.00,,,0.00,0.000000,,2013-01-09 14:22:00,
2013-01-09 05:33:00,31.0,29.0,-100.00,NNW,339,7.0,17.0,91,0.00,,,0.00,0.000000,,2013-01-09 14:33:00,
2013-01-09 05:43:00,31.0,29.0,-100.00,NNW,339,7.0,17.0,91,0.00,,,0.00,0.000000,,2013-01-09 14:43:00,
2013-01-09 05:52:00,31.0,29.0,-100.00,NNW,339,7.0,17.0,91,0.00,,,0.00,0.000000,,2013-01-09 14:52:00,
2013-01-09 06:22:00,31.0,29.0,-100.00,NNW,336,5.0,12.0,92,0.00,,,0.00,0.000000,,2013-01-09 15:22:00,
2013-01-09 06:33:00,31.0,29.0,-100.00,NNW,336,5.0,12.0,92,0.00,,,0.00,0.000000,,2013-01-09 15:33:00,
2013-01-09 06:42:00,31.0,29.0,-100.00,NNW,336,5.0,12.0,92,0.00,,,0.00,0.000000,,2013-01-09 15:42:00,
2013-01-09 06:52:00,31.0,29.0,-100.00,NNW,336,5.0,12.0,92,0.00,,,0.00,0.000000,,2013-01-09 15:52:00,
2013-01-09 07:22:00,30.0,27.0,-100.00,NNW,328,4.0,13.0,87,0.00,,,0.00,0.000000,,2013-01-09 16:22:00,
2013-01-09 07:33:00,30.0,27.0,-100.00,NNW,328,4.0,13.0,87,0.00,,,0.00,0.000000,,2013-01-09 16:33:00,
2013-01-09 07:42:00,30.0,27.0,-100.00,NNW,328,4.0,13.0,87,0.00,,,0.00,0.000000,,2013-01-09 16:42:00,
2013-01-09 07:52:00,30.0,27.0,-100.00,NNW,328,4.0,13.0,87,0.00,,,0.00,0.000000,,2013-01-09 16:52:00,
2013-01-09 08:22:00,28.0,25.0,-100.00,West,279,4.0,10.0,90,0.00,,,0.00,0.000000,,2013-01-09 17:22:00,
2013-01-09 08:32:00,28.0,25.0,-100.00,West,279,4.0,10.0,90,0.00,,,0.00,0.000000,,2013-01-09 17:32:00,
2013-01-09 08:43:00,28.0,25.0,-100.00,West,279,4.0,10.0,90,0.00,,,0.00,0.000000,,2013-01-09 17:43:00,
2013-01-09 08:52:00,28.0,25.0,-100.00,West,279,4.0,10.0,90,0.00,,,0.00,0.000000,,2013-01-09 17:52:00,
2013-01-09 09:23:00,29.0,27.0,-100.00,NNW,328,6.0,11.0,94,0.00,,,0.00,7.000000,,2013-01-09 18:23:00,
2013-01-09 09:33:00,29.0,27.0,-100.00,NNW,328,6.0,11.0,94,0.00,,,0.00,7.000000,,2013-01-09 18:33:00,
2013-01-09 09:43:00,29.0,27.0,-100.00,NNW,328,6.0,11.0,94,0.00,,,0.00,7.000000,,2013-01-09 18:43:00,
2013-01-09 09:52:00,29.0,27.0,-100.00,NNW,328,6.0,11.0,94,0.00,,,0.00,7.000000,,2013-01-09 18:52:00,
2013-01-09 10:22:00,32.0,29.0,-100.00,NNW,337,6.0,12.0,90,0.00,,,0.00,124.000000,,2013-01-09 19:22:00,
2013-01-09 10:33:00,32.0,29.0,-100.00,NNW,337,6.0,12.0,90,0.00,,,0.00,124.000000,,2013-01-09 19:33:00,
2013-01-09 10:43:00,32.0,29.0,-100.00,NNW,337,6.0,12.0,90,0.00,,,0.00,124.000000,,2013-01-09 19:43:00,
2013-01-09 10:52:00,32.0,29.0,-100.00,NNW,337,6.0,12.0,90,0.00,,,0.00,124.000000,,2013-01-09 19:52:00,
2013-01-09 11:22:00,33.0,27.0,-100.00,NNW,337,6.0,11.0,79,0.00,,,0.00,312.000000,,2013-01-09 20:22:00,
2013-01-09 11:33:00,33.0,27.0,-100.00,NNW,337,6.0,11.0,79,0.00,,,0.00,312.000000,,2013-01-09 20:33:00,
2013-01-09 11:42:00,33.0,27.0,-100.00,NNW,337,6.0,11.0,79,0.00,,,0.00,312.000000,,2013-01-09 20:42:00,
2013-01-09 11:52:00,33.0,27.0,-100.00,NNW,337,6.0,11.0,79,0.00,,,0.00,312.000000,,2013-01-09 20:52:00,
2013-01-09 12:22:00,35.0,28.0,-100.00,NNW,327,5.0,11.0,75,0.01,,,-99.99,343.000000,,2013-01-09 21:22:00,
2013-01-09 12:33:00,35.0,28.0,-100.00,NNW,327,5.0,11.0,75,0.01,,,-99.99,343.000000,,2013-01-09 21:33:00,
2013-01-09 12:42:00,35.0,28.0,-100.00,NNW,327,5.0,11.0,75,0.01,,,-99.99,343.000000,,2013-01-09 21:42:00,
2013-01-09 12:52:00,35.0,28.0,-100.00,NNW,327,5.0,11.0,75,0.01,,,-99.99,343.000000,,2013-01-09 21:52:00,
2013-01-09 13:22:00,35.0,28.0,-100.00,NW,313,6.0,10.0,75,0.01,,,0.02,328.000000,,2013-01-09 22:22:00,
2013-01-09 13:33:00,35.0,28.0,-100.00,NW,313,6.0,10.0,75,0.01,,,0.02,328.000000,,2013-01-09 22:33:00,
2013-01-09 13:42:00,35.0,28.0,-100.00,NW,313,6.0,10.0,75,0.01,,,0.02,328.000000,,2013-01-09 22:42:00,
2013-01-09 13:52:00,35.0,28.0,-100.00,NW,313,6.0,10.0,75,0.01,,,0.02,328.000000,,2013-01-09 22:52:00,
2013-01-09 14:22:00,35.0,28.0,-100.00,NW,320,3.0,10.0,75,0.00,,,0.02,254.000000,,2013-01-09 23:22:00,
2013-01-09 14:32:00,35.0,28.0,-100.00,NW,320,3.0,10.0,75,0.00,,,0.02,254.000000,,2013-01-09 23:32:00,
2013-01-09 14:42:00,35.0,28.0,-100.00,NW,320,3.0,10.0,75,0.00,,,0.02,254.000000,,2013-01-09 23:42:00,
2013-01-09 14:52:00,35.0,28.0,-100.00,NW,320,3.0,10.0,75,0.00,,,0.02,254.000000,,2013-01-09 23:52:00,
2013-01-09 15:22:00,31.0,25.0,-100.00,West,276,2.0,6.0,79,0.01,,,0.03,123.000000,,2013-01-10 00:22:00,
2013-01-09 15:32:00,31.0,25.0,-100.00,West,276,2.0,6.0,79,0.01,,,0.03,123.000000,,2013-01-10 00:32:00,
2013-01-09 15:42:00,31.0,25.0,-100.00,West,276,2.0,6.0,79,0.01,,,0.03,123.000000,,2013-01-10 00:42:00,
2013-01-09 15:52:00,31.0,25.0,-100.00,West,276,2.0,6.0,79,0.01,,,0.03,123.000000,,2013-01-10 00:52:00,
2013-01-09 16:22:00,27.0,24.0,-100.00,WSW,253,1.0,4.0,89,0.00,,,0.03,11.000000,,2013-01-10 01:22:00,
2013-01-09 16:32:00,27.0,24.0,-100.00,WSW,253,1.0,4.0,89,0.00,,,0.03,11.000000,,2013-01-10 01:32:00,
2013-01-09 16:42:00,27.0,24.0,-100.00,WSW,253,1.0,4.0,89,0.00,,,0.03,11.000000,,2013-01-10 01:42:00,
2013-01-09 16:52:00,27.0,24.0,-100.00,WSW,253,1.0,4.0,89,0.00,,,0.03,11.000000,,2013-01-10 01:52:00,
2013-01-09 17:22:00,24.0,22.0,-100.00,North,353,2.0,4.0,93,0.00,,,-99.99,0.000000,,2013-01-10 02:22:00,
2013-01-09 17:32:00,24.0,22.0,-100.00,North,353,2.0,4.0,93,0.00,,,-99.99,0.000000,,2013-01-10 02:32:00,
2013-01-09 17:42:00,24.0,22.0,-100.00,North,353,2.0,4.0,93,0.00,,,-99.99,0.000000,,2013-01-10 02:42:00,
2013-01-09 17:52:00,24.0,22.0,-100.00,North,353,2.0,4.0,93,0.00,,,-99.99,0.000000,,2013-01-10 02:52:00,
2013-01-09 18:22:00,24.0,23.0,-100.00,SSW,213,2.0,4.0,95,0.00,,,0.03,0.000000,,2013-01-10 03:22:00,
2013-01-09 18:32:00,24.0,23.0,-100.00,SSW,213,2.0,4.0,95,0.00,,,0.03,0.000000,,2013-01-10 03:32:00,
2013-01-09 18:42:00,24.0,23.0,-100.00,SSW,213,2.0,4.0,95,0.00,,,0.03,0.000000,,2013-01-10 03:42:00,
2013-01-09 18:52:00,24.0,23.0,-100.00,SSW,213,2.0,4.0,95,0.00,,,0.03,0.000000,,2013-01-10 03:52:00,
2013-01-09 19:22:00,23.0,22.0,-100.00,West,261,3.0,5.0,95,0.00,,,0.03,0.000000,,2013-01-10 04:22:00,
2013-01-09 19:32:00,23.0,22.0,-100.00,West,261,3.0,5.0,95,0.00,,,0.03,0.000000,,2013-01-10 04:32:00,
2013-01-09 19:42:00,23.0,22.0,-100.00,West,261,3.0,5.0,95,0.00,,,0.03,0.000000,,2013-01-10 04:42:00,
2013-01-09 19:52:00,23.0,22.0,-100.00,West,261,3.0,5.0,95,0.00,,,0.03,0.000000,,2013-01-10 04:52:00,
2013-01-09 20:22:00,20.0,19.0,-100.00,WNW,294,1.0,3.0,94,0.00,,,0.03,0.000000,,2013-01-10 05:22:00,
2013-01-09 20:33:00,20.0,19.0,-100.00,WNW,294,1.0,3.0,94,0.00,,,0.03,0.000000,,2013-01-10 05:33:00,
2013-01-09 20:42:00,20.0,19.0,-100.00,WNW,294,1.0,3.0,94,0.00,,,0.03,0.000000,,2013-01-10 05:42:00,
2013-01-09 20:52:00,20.0,19.0,-100.00,WNW,294,1.0,3.0,94,0.00,,,0.03,0.000000,,2013-01-10 05:52:00,
2013-01-09 21:22:00,22.0,21.0,-100.00,NNW,336,2.0,5.0,97,0.00,,,0.03,0.000000,,2013-01-10 06:22:00,
2013-01-09 21:32:00,22.0,21.0,-100.00,NNW,336,2.0,5.0,97,0.00,,,0.03,0.000000,,2013-01-10 06:32:00,
2013-01-09 21:42:00,22.0,21.0,-100.00,NNW,336,2.0,5.0,97,0.00,,,0.03,0.000000,,2013-01-10 06:42:00,
2013-01-09 21:52:00,22.0,21.0,-100.00,NNW,336,2.0,5.0,97,0.00,,,0.03,0.000000,,2013-01-10 06:52:00,
2013-01-09 22:22:00,20.0,18.0,-100.00,ENE,65,1.0,3.0,93,0.00,,,0.03,0.000000,,2013-01-10 07:22:00,
2013-01-09 22:32:00,20.0,18.0,-100.00,ENE,65,1.0,3.0,93,0.00,,,0.03,0.000000,,2013-01-10 07:32:00,
2013-01-09 22:42:00,20.0,18.0,-100.00,ENE,65,1.0,3.0,93,0.00,,,0.03,0.000000,,2013-01-10 07:42:00,
2013-01-09 22:52:00,20.0,18.0,-100.00,ENE,65,1.0,3.0,93,0.00,,,0.03,0.000000,,2013-01-10 07:52:00,
2013-01-09 23:22:00,20.0,18.0,-100.00,ESE,122,1.0,3.0,93,0.00,,,0.03,0.000000,,2013-01-10 08:22:00,
2013-01-09 23:32:00,20.0,18.0,-100.00,ESE,122,1.0,3.0,93,0.00,,,0.03,0.000000,,2013-01-10 08:32:00,
2013-01-09 23:42:00,20.0,18.0,-100.00,ESE,122,1.0,3.0,93,0.00,,,0.03,0.000000,,2013-01-10 08:42:00,
2013-01-09 23:52:00,20.0,18.0,-100.00,ESE,122,1.0,3.0,93,0.00,,,0.03,0.000000,,2013-01-10 08:52:00,